| time (UTC) | temp C | wind direction | speed KPH | gust KPH | rain 1hr cm | rain 24hr cm | rain mn cm | humidity % | barometer mb |
| 20260903120203 | 24 | 117 | 0.0 | 3.2 | 0.00 | 0.23 | 0.00 | 95 | 1016.9 |
| 20260903120051 | 24 | 117 | 0.0 | 3.2 | 0.00 | 0.23 | 0.00 | 95 | 1016.9 |
| 20260903114931 | 24 | 117 | 1.6 | 3.2 | 0.00 | 0.23 | 0.00 | 95 | 1016.9 |
| 20260903114430 | 24 | 117 | 1.6 | 3.2 | 0.00 | 0.23 | 0.00 | 95 | 1016.8 |
| 20260903113928 | 24 | 117 | 1.6 | 3.2 | 0.00 | 0.23 | 0.00 | 95 | 1016.7 |
| 20260903113428 | 24 | 117 | 1.6 | 3.2 | 0.00 | 0.23 | 0.00 | 95 | 1016.7 |
| 20260903112924 | 24 | 117 | 0.0 | 3.2 | 0.00 | 0.23 | 0.00 | 95 | 1016.8 |
| 20260903112423 | 24 | 117 | 0.0 | 3.2 | 0.00 | 0.23 | 0.00 | 95 | 1016.8 |
| 20260903111925 | 24 | 117 | 0.0 | 3.2 | 0.00 | 0.23 | 0.00 | 94 | 1016.7 |
| 20260903111424 | 24 | 117 | 0.0 | 3.2 | 0.00 | 0.23 | 0.00 | 94 | 1016.6 |
| 20260903110923 | 24 | 117 | 0.0 | 3.2 | 0.00 | 0.23 | 0.00 | 94 | 1016.6 |
| 20260903110709 | 24 | 117 | 0.0 | 3.2 | 0.00 | 0.23 | 0.00 | 95 | 1016.6 |
| 20260903105917 | 24 | 117 | 0.0 | 3.2 | 0.00 | 0.23 | 0.00 | 95 | 1016.6 |
| 20260903105415 | 24 | 117 | 0.0 | 3.2 | 0.00 | 0.23 | 0.00 | 94 | 1016.4 |
| 20260903104913 | 24 | 117 | 1.6 | 3.2 | 0.00 | 0.23 | 0.00 | 94 | 1016.4 |
| 20260903104410 | 24 | 117 | 1.6 | 1.6 | 0.00 | 0.23 | 0.00 | 94 | 1016.4 |
| 20260903103912 | 24 | 117 | 0.0 | 1.6 | 0.00 | 0.23 | 0.00 | 94 | 1016.4 |
| 20260903103636 | 24 | 117 | 1.6 | 3.2 | 0.00 | 0.23 | 0.00 | 94 | 1016.3 |
| 20260903102903 | 24 | 117 | 1.6 | 3.2 | 0.00 | 0.23 | 0.00 | 94 | 1016.2 |
| 20260903102400 | 24 | 117 | 1.6 | 3.2 | 0.00 | 0.23 | 0.00 | 94 | 1016.2 |
| 20260903101858 | 24 | 117 | 1.6 | 3.2 | 0.00 | 0.23 | 0.00 | 94 | 1016.2 |
| 20260903101359 | 24 | 117 | 1.6 | 3.2 | 0.00 | 0.23 | 0.00 | 94 | 1016.1 |
| 20260903101124 | 24 | 117 | 1.6 | 3.2 | 0.00 | 0.23 | 0.00 | 94 | 1016.1 |
| 20260903100349 | 24 | 117 | 1.6 | 3.2 | 0.00 | 0.23 | 0.00 | 94 | 1016.0 |
| 20260903095848 | 24 | 117 | 0.0 | 3.2 | 0.00 | 0.23 | 0.00 | 94 | 1016.0 |
| 20260903095347 | 24 | 129 | 0.0 | 1.6 | 0.00 | 0.23 | 0.00 | 94 | 1016.0 |
| 20260903095119 | 24 | 129 | 0.0 | 3.2 | 0.00 | 0.23 | 0.00 | 94 | 1016.0 |
| 20260903094344 | 24 | 129 | 0.0 | 3.2 | 0.00 | 0.23 | 0.00 | 94 | 1016.0 |
| 20260903093843 | 24 | 129 | 0.0 | 3.2 | 0.00 | 0.23 | 0.00 | 94 | 1016.0 |
| 20260903093615 | 24 | 129 | 0.0 | 0.0 | 0.00 | 0.23 | 0.00 | 94 | 1015.9 |
| 20260903092842 | 24 | 129 | 0.0 | 3.2 | 0.00 | 0.23 | 0.00 | 94 | 1015.9 |
| 20260903092340 | 24 | 129 | 0.0 | 3.2 | 0.00 | 0.23 | 0.00 | 94 | 1015.9 |
| 20260903092111 | 25 | 129 | 0.0 | 3.2 | 0.00 | 0.23 | 0.00 | 94 | 1015.9 |
| 20260903091337 | 25 | 129 | 0.0 | 3.2 | 0.00 | 0.23 | 0.00 | 94 | 1015.9 |
| 20260903091106 | 25 | 129 | 0.0 | 3.2 | 0.00 | 0.23 | 0.00 | 94 | 1016.0 |
| 20260903090337 | 25 | 129 | 0.0 | 0.0 | 0.00 | 0.23 | 0.00 | 94 | 1015.9 |
| 20260903085836 | 25 | 129 | 0.0 | 0.0 | 0.00 | 0.23 | 0.00 | 94 | 1015.8 |
| 20260903085335 | 25 | 129 | 0.0 | 3.2 | 0.00 | 0.23 | 0.00 | 94 | 1015.9 |
| 20260903084834 | 25 | 129 | 0.0 | 3.2 | 0.00 | 0.23 | 0.00 | 94 | 1015.8 |
| 20260903084333 | 25 | 129 | 0.0 | 3.2 | 0.00 | 0.23 | 0.00 | 94 | 1015.8 |
| 20260903084329 | 25 | 129 | 0.0 | 3.2 | 0.00 | 0.23 | 0.00 | 94 | 1015.8 |
| 20260903083324 | 25 | 129 | 0.0 | 3.2 | 0.00 | 0.23 | 0.00 | 94 | 1015.7 |
| 20260903082822 | 25 | 129 | 0.0 | 3.2 | 0.00 | 0.23 | 0.00 | 94 | 1015.8 |
| 20260903082323 | 25 | 123 | 0.0 | 3.2 | 0.00 | 0.23 | 0.00 | 94 | 1015.7 |
| 20260903081819 | 25 | 123 | 1.6 | 3.2 | 0.00 | 0.23 | 0.00 | 94 | 1015.6 |
| 20260903081318 | 25 | 123 | 1.6 | 4.8 | 0.00 | 0.23 | 0.00 | 94 | 1015.7 |
| 20260903080819 | 25 | 123 | 1.6 | 4.8 | 0.00 | 0.23 | 0.00 | 94 | 1015.6 |
| 20260903080319 | 25 | 123 | 1.6 | 4.8 | 0.00 | 0.23 | 0.00 | 94 | 1015.6 |
| 20260903075816 | 25 | 123 | 1.6 | 4.8 | 0.00 | 0.23 | 0.00 | 94 | 1015.8 |
| 20260903075318 | 25 | 118 | 0.0 | 3.2 | 0.00 | 0.23 | 0.00 | 94 | 1015.9 |
| 20260903074811 | 25 | 120 | 0.0 | 3.2 | 0.00 | 0.23 | 0.00 | 94 | 1015.9 |
| 20260903074539 | 25 | 120 | 0.0 | 3.2 | 0.00 | 0.23 | 0.00 | 94 | 1015.9 |
| 20260903073807 | 25 | 120 | 0.0 | 0.0 | 0.00 | 0.23 | 0.00 | 94 | 1016.0 |
| 20260903073307 | 25 | 120 | 0.0 | 0.0 | 0.00 | 0.23 | 0.00 | 94 | 1015.9 |
| 20260903072807 | 25 | 120 | 0.0 | 0.0 | 0.00 | 0.23 | 0.00 | 94 | 1016.0 |
| 20260903072308 | 25 | 120 | 0.0 | 0.0 | 0.00 | 0.23 | 0.00 | 94 | 1015.9 |
| 20260903071802 | 25 | 120 | 0.0 | 0.0 | 0.00 | 0.23 | 0.00 | 93 | 1016.0 |
| 20260903071257 | 25 | 120 | 0.0 | 0.0 | 0.00 | 0.23 | 0.00 | 94 | 1016.0 |
| 20260903070757 | 25 | 120 | 0.0 | 0.0 | 0.00 | 0.23 | 0.00 | 94 | 1016.0 |
| 20260903070258 | 25 | 120 | 0.0 | 0.0 | 0.00 | 0.23 | 0.00 | 94 | 1016.1 |
| 20260903065757 | 25 | 120 | 0.0 | 0.0 | 0.00 | 0.23 | 0.00 | 93 | 1016.2 |
| 20260903065258 | 25 | 120 | 0.0 | 0.0 | 0.00 | 0.23 | 0.00 | 93 | 1016.1 |
| 20260903064253 | 25 | 120 | 0.0 | 0.0 | 0.00 | 0.23 | 0.00 | 93 | 1016.1 |
| 20260903063753 | 25 | 120 | 0.0 | 0.0 | 0.00 | 0.23 | 0.00 | 93 | 1016.1 |
| 20260903063526 | 25 | 120 | 0.0 | 0.0 | 0.00 | 0.23 | 0.00 | 93 | 1016.1 |
| 20260903063025 | 25 | 120 | 0.0 | 0.0 | 0.00 | 0.23 | 0.00 | 93 | 1016.2 |
| 20260903062253 | 25 | 120 | 0.0 | 0.0 | 0.00 | 0.23 | 0.00 | 93 | 1016.2 |
| 20260903061754 | 25 | 120 | 0.0 | 0.0 | 0.00 | 0.23 | 0.00 | 93 | 1016.3 |
| 20260903061521 | 25 | 120 | 0.0 | 0.0 | 0.00 | 0.23 | 0.00 | 93 | 1016.3 |
| 20260903060749 | 25 | 120 | 0.0 | 0.0 | 0.00 | 0.23 | 0.00 | 93 | 1016.4 |
| 20260903060249 | 25 | 120 | 0.0 | 0.0 | 0.00 | 0.23 | 0.00 | 93 | 1016.5 |
| 20260903055750 | 25 | 120 | 0.0 | 0.0 | 0.00 | 0.23 | 0.00 | 93 | 1016.5 |
| 20260903055249 | 25 | 120 | 0.0 | 0.0 | 0.00 | 0.23 | 0.00 | 93 | 1016.5 |
| 20260903054751 | 25 | 120 | 0.0 | 0.0 | 0.00 | 0.23 | 0.00 | 93 | 1016.6 |
| 20260903054245 | 25 | 120 | 0.0 | 1.6 | 0.00 | 0.23 | 0.00 | 93 | 1016.6 |
| 20260903053743 | 25 | 120 | 0.0 | 1.6 | 0.00 | 0.23 | 0.00 | 93 | 1016.6 |
| 20260903053242 | 25 | 120 | 0.0 | 0.0 | 0.00 | 0.23 | 0.00 | 93 | 1016.6 |
| 20260903052739 | 25 | 120 | 0.0 | 0.0 | 0.00 | 0.23 | 0.00 | 93 | 1016.6 |
| 20260903052240 | 25 | 120 | 0.0 | 3.2 | 0.00 | 0.23 | 0.00 | 93 | 1016.6 |
| 20260903051740 | 25 | 120 | 0.0 | 3.2 | 0.00 | 0.23 | 0.00 | 93 | 1016.6 |
| 20260903051241 | 25 | 120 | 1.6 | 3.2 | 0.00 | 0.23 | 0.00 | 93 | 1016.5 |
| 20260903050735 | 25 | 120 | 1.6 | 3.2 | 0.00 | 0.23 | 0.00 | 93 | 1016.6 |
| 20260903050236 | 25 | 120 | 1.6 | 4.8 | 0.00 | 0.23 | 0.00 | 93 | 1016.6 |
| 20260903045733 | 25 | 120 | 0.0 | 4.8 | 0.00 | 0.23 | 0.23 | 93 | 1016.7 |
| 20260903045233 | 25 | 120 | 1.6 | 6.4 | 0.00 | 0.23 | 0.23 | 93 | 1016.7 |
| 20260903044731 | 25 | 120 | 3.2 | 6.4 | 0.00 | 0.23 | 0.23 | 93 | 1016.8 |
| 20260903044231 | 25 | 125 | 3.2 | 4.8 | 0.00 | 0.23 | 0.23 | 93 | 1016.8 |
| 20260903043726 | 25 | 127 | 1.6 | 6.4 | 0.00 | 0.23 | 0.23 | 93 | 1016.8 |
| 20260903043226 | 25 | 112 | 3.2 | 6.4 | 0.00 | 0.23 | 0.23 | 93 | 1016.7 |
| 20260903042726 | 25 | 92 | 3.2 | 4.8 | 0.00 | 0.23 | 0.23 | 93 | 1016.8 |
| 20260903042227 | 25 | 92 | 1.6 | 3.2 | 0.00 | 0.23 | 0.23 | 93 | 1016.8 |
| 20260903041725 | 25 | 121 | 1.6 | 3.2 | 0.00 | 0.23 | 0.23 | 93 | 1016.9 |
| 20260903041224 | 25 | 88 | 0.0 | 3.2 | 0.00 | 0.23 | 0.23 | 93 | 1017.0 |
| 20260903040718 | 25 | 88 | 1.6 | 3.2 | 0.00 | 0.23 | 0.23 | 93 | 1017.0 |
| 20260903040217 | 25 | 88 | 1.6 | 3.2 | 0.00 | 0.23 | 0.23 | 93 | 1017.1 |
| 20260903035947 | 25 | 88 | 0.0 | 3.2 | 0.00 | 0.23 | 0.23 | 93 | 1017.1 |
| 20260903035449 | 25 | 88 | 1.6 | 3.2 | 0.00 | 0.23 | 0.23 | 93 | 1017.2 |
| 20260903034715 | 25 | 88 | 1.6 | 3.2 | 0.00 | 0.23 | 0.23 | 93 | 1017.1 |
| 20260903034214 | 25 | 88 | 1.6 | 3.2 | 0.00 | 0.23 | 0.23 | 93 | 1017.0 |
| 20260903033712 | 25 | 88 | 1.6 | 3.2 | 0.00 | 0.23 | 0.23 | 93 | 1017.1 |
| 20260903033445 | 26 | 88 | 0.0 | 3.2 | 0.00 | 0.23 | 0.23 | 92 | 1017.2 |
| 20260903032713 | 26 | 88 | 0.0 | 0.0 | 0.00 | 0.23 | 0.23 | 92 | 1017.2 |
| 20260903032211 | 26 | 88 | 0.0 | 0.0 | 0.00 | 0.23 | 0.23 | 92 | 1017.2 |
| 20260903031940 | 26 | 88 | 0.0 | 0.0 | 0.00 | 0.23 | 0.23 | 92 | 1017.2 |
| 20260903031208 | 26 | 88 | 0.0 | 0.0 | 0.00 | 0.23 | 0.23 | 92 | 1017.3 |
| 20260903030701 | 26 | 88 | 0.0 | 0.0 | 0.00 | 0.23 | 0.23 | 92 | 1017.2 |
| 20260903030201 | 26 | 88 | 0.0 | 0.0 | 0.00 | 0.23 | 0.23 | 92 | 1017.4 |
| 20260903025659 | 26 | 88 | 0.0 | 0.0 | 0.00 | 0.23 | 0.23 | 92 | 1017.3 |
| 20260903025156 | 26 | 88 | 0.0 | 0.0 | 0.00 | 0.23 | 0.23 | 92 | 1017.3 |
| 20260903024656 | 26 | 88 | 0.0 | 3.2 | 0.00 | 0.23 | 0.23 | 91 | 1017.2 |
| 20260903024150 | 26 | 88 | 0.0 | 3.2 | 0.00 | 0.23 | 0.23 | 91 | 1017.3 |
| 20260903023648 | 26 | 88 | 0.0 | 3.2 | 0.00 | 0.23 | 0.23 | 91 | 1017.2 |
| 20260903023147 | 26 | 88 | 0.0 | 0.0 | 0.00 | 0.23 | 0.23 | 91 | 1017.2 |
| 20260903022645 | 26 | 88 | 0.0 | 0.0 | 0.00 | 0.23 | 0.23 | 91 | 1017.2 |
| 20260903022144 | 26 | 88 | 0.0 | 0.0 | 0.00 | 0.23 | 0.23 | 91 | 1017.3 |
| 20260903021638 | 26 | 88 | 0.0 | 0.0 | 0.00 | 0.23 | 0.23 | 91 | 1017.2 |
| 20260903021137 | 26 | 88 | 0.0 | 1.6 | 0.00 | 0.23 | 0.23 | 91 | 1017.0 |
| 20260903020638 | 26 | 88 | 0.0 | 1.6 | 0.00 | 0.23 | 0.23 | 90 | 1016.8 |
| 20260903020133 | 26 | 88 | 0.0 | 3.2 | 0.00 | 0.23 | 0.23 | 90 | 1016.8 |
| 20260903015632 | 26 | 88 | 0.0 | 3.2 | 0.00 | 0.23 | 0.23 | 91 | 1016.6 |
| 20260903015127 | 26 | 88 | 0.0 | 3.2 | 0.00 | 0.23 | 0.23 | 90 | 1016.5 |
| 20260903014624 | 26 | 88 | 0.0 | 3.2 | 0.00 | 0.23 | 0.23 | 90 | 1016.4 |
| 20260903014122 | 26 | 87 | 0.0 | 3.2 | 0.00 | 0.23 | 0.23 | 90 | 1016.3 |
| 20260903013851 | 26 | 88 | 0.0 | 0.0 | 0.00 | 0.23 | 0.23 | 90 | 1016.2 |
| 20260903013121 | 26 | 88 | 0.0 | 0.0 | 0.00 | 0.23 | 0.23 | 89 | 1016.2 |
| 20260903012614 | 26 | 87 | 0.0 | 0.0 | 0.00 | 0.23 | 0.23 | 89 | 1015.9 |
| 20260903012114 | 26 | 87 | 0.0 | 0.0 | 0.00 | 0.23 | 0.23 | 89 | 1015.9 |
| 20260903011613 | 27 | 87 | 0.0 | 0.0 | 0.00 | 0.23 | 0.23 | 88 | 1015.9 |
| 20260903011115 | 27 | 87 | 0.0 | 0.0 | 0.00 | 0.23 | 0.23 | 88 | 1016.0 |
| 20260903010847 | 27 | 87 | 0.0 | 0.0 | 0.00 | 0.23 | 0.23 | 88 | 1015.9 |
| 20260903010116 | 27 | 87 | 0.0 | 0.0 | 0.00 | 0.23 | 0.23 | 88 | 1016.0 |
| 20260903005613 | 27 | 87 | 0.0 | 0.0 | 0.00 | 0.23 | 0.23 | 87 | 1015.9 |
| 20260903005341 | 27 | 87 | 0.0 | 1.6 | 0.00 | 0.23 | 0.23 | 87 | 1015.9 |
| 20260903004608 | 27 | 87 | 1.6 | 4.8 | 0.00 | 0.23 | 0.23 | 87 | 1016.0 |
| 20260903004105 | 27 | 87 | 3.2 | 4.8 | 0.00 | 0.23 | 0.23 | 86 | 1016.0 |
| 20260903003606 | 27 | 96 | 1.6 | 3.2 | 0.00 | 0.23 | 0.23 | 86 | 1015.9 |
| 20260903003338 | 27 | 96 | 0.0 | 3.2 | 0.00 | 0.23 | 0.23 | 86 | 1016.1 |
| 20260903002559 | 27 | 96 | 0.0 | 3.2 | 0.00 | 0.23 | 0.23 | 85 | 1016.2 |
| 20260903002058 | 28 | 96 | 0.0 | 3.2 | 0.00 | 0.23 | 0.23 | 85 | 1016.1 |
| 20260903001556 | 28 | 120 | 0.0 | 3.2 | 0.00 | 0.23 | 0.23 | 84 | 1016.1 |
| 20260903000554 | 28 | 120 | 0.0 | 3.2 | 0.00 | 0.23 | 0.23 | 83 | 1016.1 |
| 20260903000047 | 28 | 120 | 0.0 | 3.2 | 0.00 | 0.23 | 0.23 | 82 | 1016.0 |
| 20260902235817 | 28 | 120 | 0.0 | 3.2 | 0.00 | 0.23 | 0.23 | 82 | 1016.2 |
| 20260902235317 | 28 | 120 | 0.0 | 3.2 | 0.00 | 0.23 | 0.23 | 82 | 1016.1 |
| 20260902234817 | 28 | 120 | 0.0 | 3.2 | 0.00 | 0.23 | 0.23 | 82 | 1016.0 |
| 20260902234044 | 28 | 120 | 0.0 | 3.2 | 0.00 | 0.23 | 0.23 | 82 | 1016.1 |
| 20260902233544 | 28 | 120 | 0.0 | 4.8 | 0.00 | 0.23 | 0.23 | 82 | 1016.1 |
| 20260902233042 | 28 | 120 | 0.0 | 4.8 | 0.00 | 0.23 | 0.23 | 81 | 1016.2 |
| 20260902232536 | 28 | 120 | 1.6 | 6.4 | 0.00 | 0.23 | 0.23 | 81 | 1016.1 |
| 20260902232031 | 28 | 156 | 1.6 | 6.4 | 0.00 | 0.23 | 0.23 | 81 | 1016.1 |
| 20260902231533 | 28 | 147 | 1.6 | 3.2 | 0.00 | 0.23 | 0.23 | 80 | 1016.2 |
| 20260902231032 | 28 | 147 | 1.6 | 4.8 | 0.00 | 0.23 | 0.23 | 80 | 1016.3 |
| 20260902230531 | 28 | 148 | 1.6 | 4.8 | 0.00 | 0.23 | 0.23 | 79 | 1016.2 |
| 20260902230032 | 28 | 147 | 1.6 | 4.8 | 0.00 | 0.23 | 0.23 | 79 | 1016.2 |
| 20260902225532 | 28 | 126 | 1.6 | 4.8 | 0.00 | 0.23 | 0.23 | 80 | 1016.3 |
| 20260902225259 | 28 | 170 | 1.6 | 3.2 | 0.00 | 0.23 | 0.23 | 79 | 1016.1 |
| 20260902224527 | 29 | 169 | 1.6 | 4.8 | 0.00 | 0.23 | 0.23 | 79 | 1016.2 |
| 20260902224028 | 29 | 164 | 1.6 | 6.4 | 0.00 | 0.23 | 0.23 | 78 | 1016.3 |
| 20260902223528 | 29 | 160 | 1.6 | 6.4 | 0.00 | 0.23 | 0.23 | 78 | 1016.1 |
| 20260902223027 | 29 | 119 | 1.6 | 6.4 | 0.00 | 0.23 | 0.23 | 78 | 1016.2 |
| 20260902222529 | 29 | 91 | 3.2 | 6.4 | 0.00 | 0.23 | 0.23 | 77 | 1016.3 |
| 20260902222028 | 29 | 115 | 3.2 | 6.4 | 0.00 | 0.23 | 0.23 | 76 | 1016.2 |
| 20260902221527 | 29 | 133 | 1.6 | 8.0 | 0.00 | 0.23 | 0.23 | 76 | 1016.2 |
| 20260902221027 | 29 | 146 | 0.0 | 8.0 | 0.00 | 0.23 | 0.23 | 76 | 1016.3 |
| 20260902220528 | 29 | 155 | 0.0 | 3.2 | 0.00 | 0.23 | 0.23 | 77 | 1016.2 |
| 20260902220028 | 29 | 155 | 0.0 | 3.2 | 0.00 | 0.23 | 0.23 | 76 | 1016.4 |
| 20260902215526 | 29 | 156 | 0.0 | 3.2 | 0.00 | 0.23 | 0.23 | 75 | 1016.4 |
| 20260902215025 | 29 | 156 | 0.0 | 3.2 | 0.00 | 0.23 | 0.23 | 76 | 1016.5 |
| 20260902214522 | 29 | 156 | 0.0 | 3.2 | 0.00 | 0.23 | 0.23 | 77 | 1016.5 |
| 20260902214020 | 29 | 156 | 0.0 | 3.2 | 0.00 | 0.23 | 0.23 | 77 | 1016.6 |
| 20260902213519 | 29 | 249 | 0.0 | 3.2 | 0.00 | 0.23 | 0.23 | 75 | 1016.7 |
| 20260902213020 | 28 | 249 | 0.0 | 3.2 | 0.00 | 0.23 | 0.23 | 78 | 1016.7 |
| 20260902212521 | 28 | 249 | 0.0 | 3.2 | 0.00 | 0.25 | 0.23 | 77 | 1016.8 |
| 20260902212245 | 28 | 249 | 0.0 | 4.8 | 0.00 | 0.25 | 0.23 | 78 | 1016.8 |
| 20260902211510 | 28 | 249 | 0.0 | 4.8 | 0.00 | 0.25 | 0.23 | 79 | 1016.7 |
| 20260902211010 | 28 | 273 | 0.0 | 3.2 | 0.00 | 0.25 | 0.23 | 79 | 1016.8 |
| 20260902210508 | 28 | 273 | 0.0 | 3.2 | 0.00 | 0.25 | 0.23 | 79 | 1016.9 |
| 20260902210016 | 28 | 274 | 0.0 | 3.2 | 0.00 | 0.25 | 0.23 | 80 | 1016.9 |
| 20260902205502 | 28 | 267 | 0.0 | 3.2 | 0.00 | 0.25 | 0.23 | 79 | 1017.0 |
| 20260902205000 | 28 | 267 | 0.0 | 3.2 | 0.00 | 0.25 | 0.23 | 80 | 1017.0 |
| 20260902204457 | 28 | 252 | 0.0 | 1.6 | 0.00 | 0.25 | 0.23 | 82 | 1017.0 |
| 20260902203956 | 28 | 220 | 0.0 | 0.0 | 0.00 | 0.25 | 0.23 | 81 | 1017.0 |
| 20260902203457 | 28 | 219 | 0.0 | 0.0 | 0.00 | 0.25 | 0.23 | 81 | 1017.1 |
| 20260902202958 | 28 | 220 | 0.0 | 0.0 | 0.00 | 0.25 | 0.23 | 81 | 1017.2 |
| 20260902202451 | 28 | 219 | 0.0 | 3.2 | 0.00 | 0.25 | 0.23 | 81 | 1017.4 |
| 20260902201952 | 28 | 220 | 0.0 | 3.2 | 0.00 | 0.25 | 0.23 | 81 | 1017.4 |
| 20260902201723 | 28 | 220 | 0.0 | 3.2 | 0.00 | 0.25 | 0.23 | 80 | 1017.3 |
| 20260902200952 | 28 | 219 | 0.0 | 3.2 | 0.00 | 0.25 | 0.23 | 80 | 1017.3 |
| 20260902200724 | 28 | 205 | 0.0 | 3.2 | 0.00 | 0.25 | 0.23 | 78 | 1017.4 |
| 20260902195951 | 28 | 267 | 0.0 | 3.2 | 0.00 | 0.25 | 0.23 | 78 | 1017.4 |
| 20260902195722 | 28 | 267 | 1.6 | 3.2 | 0.00 | 0.25 | 0.23 | 79 | 1017.3 |
| 20260902194948 | 28 | 261 | 0.0 | 3.2 | 0.00 | 0.25 | 0.23 | 80 | 1017.2 |
| 20260902194448 | 28 | 261 | 0.0 | 3.2 | 0.00 | 0.25 | 0.23 | 80 | 1017.3 |
| 20260902193948 | 28 | 207 | 0.0 | 3.2 | 0.00 | 0.25 | 0.23 | 78 | 1017.4 |
| 20260902193446 | 28 | 231 | 0.0 | 8.0 | 0.00 | 0.25 | 0.23 | 78 | 1017.5 |
| 20260902192945 | 28 | 136 | 0.0 | 8.0 | 0.00 | 0.25 | 0.23 | 79 | 1017.7 |
| 20260902192439 | 28 | 202 | 0.0 | 4.8 | 0.00 | 0.25 | 0.23 | 80 | 1017.8 |
| 20260902191938 | 28 | 217 | 0.0 | 3.2 | 0.00 | 0.25 | 0.23 | 80 | 1017.8 |
| 20260902191710 | 28 | 207 | 0.0 | 4.8 | 0.00 | 0.25 | 0.23 | 79 | 1017.7 |
| 20260902190939 | 28 | 164 | 3.2 | 14.5 | 0.00 | 0.25 | 0.23 | 78 | 1017.7 |
| 20260902190712 | 28 | 181 | 3.2 | 14.5 | 0.00 | 0.25 | 0.23 | 77 | 1017.7 |
| 20260902185941 | 28 | 216 | 1.6 | 11.3 | 0.00 | 0.25 | 0.23 | 77 | 1017.7 |
| 20260902185433 | 29 | 150 | 4.8 | 19.3 | 0.00 | 0.25 | 0.23 | 78 | 1017.8 |
| 20260902185207 | 29 | 212 | 4.8 | 19.3 | 0.00 | 0.25 | 0.23 | 76 | 1017.9 |
| 20260902184433 | 29 | 190 | 3.2 | 11.3 | 0.00 | 0.25 | 0.23 | 77 | 1018.0 |
| 20260902183933 | 29 | 173 | 4.8 | 16.1 | 0.00 | 0.25 | 0.23 | 79 | 1018.0 |
| 20260902183433 | 29 | 143 | 6.4 | 16.1 | 0.00 | 0.25 | 0.23 | 79 | 1017.7 |
| 20260902182934 | 29 | 158 | 6.4 | 19.3 | 0.00 | 0.25 | 0.23 | 80 | 1017.6 |
| 20260902182431 | 29 | 161 | 4.8 | 19.3 | 0.00 | 0.25 | 0.23 | 81 | 1017.6 |
| 20260902182202 | 28 | 149 | 3.2 | 11.3 | 0.00 | 0.25 | 0.23 | 82 | 1017.7 |
| 20260902182052 | 28 | 140 | 1.6 | 9.7 | 0.03 | 0.25 | 0.23 | 83 | 1017.5 |
| 20260902180929 | 27 | 128 | 1.6 | 6.4 | 0.13 | 0.25 | 0.23 | 85 | 1017.6 |
| 20260902180428 | 27 | 120 | 1.6 | 6.4 | 0.18 | 0.25 | 0.23 | 85 | 1017.7 |
| 20260902175927 | 27 | 140 | 1.6 | 3.2 | 0.18 | 0.25 | 0.23 | 88 | 1017.8 |
| 20260902175421 | 26 | 188 | 1.6 | 3.2 | 0.18 | 0.25 | 0.23 | 89 | 1018.0 |
| 20260902174919 | 26 | 80 | 1.6 | 4.8 | 0.23 | 0.25 | 0.23 | 87 | 1018.1 |
| 20260902174418 | 26 | 80 | 3.2 | 4.8 | 0.23 | 0.25 | 0.23 | 87 | 1018.1 |
| 20260902173916 | 26 | 79 | 3.2 | 6.4 | 0.23 | 0.25 | 0.23 | 87 | 1018.1 |
| 20260902173415 | 26 | 75 | 3.2 | 6.4 | 0.23 | 0.25 | 0.23 | 89 | 1018.1 |
| 20260902172913 | 26 | 79 | 4.8 | 8.0 | 0.23 | 0.25 | 0.23 | 87 | 1018.1 |
| 20260902172642 | 25 | 96 | 8.0 | 22.5 | 0.23 | 0.28 | 0.23 | 87 | 1018.0 |
| 20260902171910 | 25 | 93 | 12.9 | 22.5 | 0.23 | 0.28 | 0.23 | 86 | 1018.3 |
| 20260902171410 | 26 | 92 | 14.5 | 24.1 | 0.20 | 0.28 | 0.20 | 85 | 1018.3 |
| 20260902170910 | 26 | 114 | 16.1 | 27.4 | 0.10 | 0.20 | 0.13 | 84 | 1018.5 |
| 20260902170411 | 27 | 132 | 16.1 | 30.6 | 0.05 | 0.15 | 0.05 | 80 | 1018.5 |
| 20260902165902 | 28 | 107 | 14.5 | 30.6 | 0.05 | 0.15 | 0.05 | 82 | 1018.4 |
| 20260902165404 | 29 | 146 | 11.3 | 29.0 | 0.05 | 0.15 | 0.05 | 79 | 1018.4 |
| 20260902165134 | 30 | 134 | 9.7 | 22.5 | 0.00 | 0.10 | 0.00 | 72 | 1018.6 |
| 20260902164404 | 31 | 132 | 6.4 | 17.7 | 0.00 | 0.10 | 0.00 | 70 | 1018.5 |
| 20260902163903 | 32 | 136 | 6.4 | 16.1 | 0.00 | 0.10 | 0.00 | 71 | 1018.4 |
| 20260902163404 | 32 | 110 | 6.4 | 16.1 | 0.00 | 0.10 | 0.00 | 70 | 1018.5 |
| 20260902162901 | 32 | 114 | 6.4 | 16.1 | 0.00 | 0.10 | 0.00 | 73 | 1018.6 |
| 20260902162632 | 32 | 132 | 6.4 | 16.1 | 0.00 | 0.10 | 0.00 | 72 | 1018.7 |
| 20260902161858 | 32 | 84 | 6.4 | 16.1 | 0.00 | 0.10 | 0.00 | 72 | 1018.7 |
| 20260902161358 | 32 | 98 | 4.8 | 11.3 | 0.00 | 0.10 | 0.00 | 73 | 1018.6 |
| 20260902160857 | 31 | 153 | 6.4 | 12.9 | 0.00 | 0.10 | 0.00 | 74 | 1018.7 |
| 20260902160630 | 31 | 112 | 4.8 | 12.9 | 0.00 | 0.10 | 0.00 | 74 | 1018.6 |
| 20260902155850 | 31 | 106 | 4.8 | 17.7 | 0.00 | 0.10 | 0.00 | 75 | 1018.7 |
| 20260902155352 | 31 | 132 | 6.4 | 17.7 | 0.00 | 0.25 | 0.00 | 74 | 1018.6 |
| 20260902155122 | 31 | 113 | 8.0 | 17.7 | 0.00 | 0.61 | 0.00 | 75 | 1018.7 |
| 20260902154351 | 31 | 142 | 6.4 | 17.7 | 0.00 | 1.24 | 0.00 | 74 | 1018.6 |
| 20260902153850 | 31 | 144 | 3.2 | 14.5 | 0.00 | 1.73 | 0.00 | 74 | 1018.5 |
| 20260902153352 | 31 | 165 | 4.8 | 14.5 | 0.00 | 1.85 | 0.00 | 75 | 1018.5 |
| 20260902152845 | 31 | 141 | 4.8 | 14.5 | 0.00 | 1.85 | 0.00 | 80 | 1018.5 |
| 20260902152344 | 31 | 110 | 4.8 | 14.5 | 0.00 | 1.88 | 0.00 | 80 | 1018.6 |
| 20260902151844 | 30 | 140 | 6.4 | 16.1 | 0.00 | 1.93 | 0.00 | 81 | 1018.6 |
| 20260902151344 | 30 | 143 | 6.4 | 16.1 | 0.00 | 1.93 | 0.00 | 80 | 1018.6 |
| 20260902150845 | 30 | 122 | 6.4 | 14.5 | 0.00 | 1.96 | 0.00 | 80 | 1018.6 |
| 20260902150346 | 30 | 144 | 6.4 | 14.5 | 0.00 | 1.96 | 0.00 | 81 | 1018.6 |
| 20260902145840 | 30 | 128 | 6.4 | 12.9 | 0.00 | 1.96 | 0.00 | 82 | 1018.6 |
| 20260902145342 | 30 | 122 | 6.4 | 12.9 | 0.00 | 1.96 | 0.00 | 83 | 1018.6 |
| 20260902144842 | 30 | 140 | 4.8 | 12.9 | 0.00 | 1.96 | 0.00 | 82 | 1018.5 |
| 20260902144340 | 30 | 135 | 4.8 | 11.3 | 0.00 | 1.96 | 0.00 | 83 | 1018.5 |
| 20260902143841 | 30 | 114 | 4.8 | 9.7 | 0.00 | 1.96 | 0.00 | 83 | 1018.5 |
| 20260902143341 | 29 | 116 | 3.2 | 9.7 | 0.00 | 1.96 | 0.00 | 85 | 1018.4 |
| 20260902143106 | 29 | 84 | 4.8 | 12.9 | 0.00 | 1.96 | 0.00 | 86 | 1018.4 |
| 20260902142334 | 29 | 144 | 6.4 | 12.9 | 0.00 | 1.96 | 0.00 | 86 | 1018.4 |
| 20260902141836 | 28 | 130 | 4.8 | 11.3 | 0.00 | 1.96 | 0.00 | 86 | 1018.4 |
| 20260902141605 | 28 | 83 | 4.8 | 11.3 | 0.00 | 1.96 | 0.00 | 87 | 1018.3 |
| 20260902140835 | 28 | 84 | 4.8 | 11.3 | 0.00 | 1.96 | 0.00 | 88 | 1018.3 |
| 20260902140333 | 28 | 109 | 6.4 | 11.3 | 0.00 | 1.96 | 0.00 | 88 | 1018.4 |
| 20260902135834 | 28 | 104 | 4.8 | 11.3 | 0.00 | 1.96 | 0.00 | 89 | 1018.4 |
| 20260902135605 | 27 | 160 | 4.8 | 9.7 | 0.00 | 1.96 | 0.00 | 89 | 1018.3 |
| 20260902134835 | 27 | 137 | 4.8 | 12.9 | 0.00 | 1.96 | 0.00 | 90 | 1018.4 |
| 20260902134335 | 27 | 88 | 6.4 | 12.9 | 0.00 | 1.96 | 0.00 | 91 | 1018.4 |
| 20260902133831 | 27 | 84 | 8.0 | 14.5 | 0.00 | 1.96 | 0.00 | 90 | 1018.3 |
| 20260902133331 | 27 | 106 | 6.4 | 14.5 | 0.00 | 1.96 | 0.00 | 91 | 1018.3 |
| 20260902132831 | 27 | 86 | 6.4 | 12.9 | 0.00 | 1.96 | 0.00 | 92 | 1018.3 |
| 20260902132331 | 26 | 77 | 6.4 | 11.3 | 0.00 | 1.96 | 0.00 | 92 | 1018.2 |
| 20260902131830 | 26 | 109 | 4.8 | 12.9 | 0.00 | 1.96 | 0.00 | 93 | 1018.0 |
| 20260902131328 | 26 | 103 | 4.8 | 11.3 | 0.00 | 1.96 | 0.00 | 94 | 1018.1 |
| 20260902130824 | 26 | 105 | 4.8 | 12.9 | 0.00 | 1.96 | 0.00 | 95 | 1018.0 |
| 20260902130324 | 26 | 147 | 4.8 | 11.3 | 0.00 | 1.96 | 0.00 | 95 | 1018.0 |
| 20260902125824 | 25 | 129 | 4.8 | 6.4 | 0.00 | 1.96 | 0.00 | 95 | 1018.0 |
| 20260902125558 | 25 | 106 | 3.2 | 9.7 | 0.00 | 1.96 | 0.00 | 95 | 1018.0 |
| 20260902125053 | 25 | 103 | 3.2 | 9.7 | 0.00 | 1.96 | 0.00 | 95 | 1017.9 |
| 20260902124324 | 25 | 102 | 3.2 | 9.7 | 0.00 | 1.96 | 0.00 | 95 | 1017.9 |
| 20260902123821 | 25 | 100 | 3.2 | 6.4 | 0.00 | 1.96 | 0.00 | 95 | 1017.9 |
| 20260902123318 | 25 | 101 | 3.2 | 6.4 | 0.00 | 1.96 | 0.00 | 95 | 1017.9 |
| 20260902122818 | 25 | 88 | 3.2 | 6.4 | 0.00 | 1.96 | 0.00 | 95 | 1017.8 |
| 20260902122319 | 25 | 92 | 1.6 | 4.8 | 0.00 | 1.96 | 0.00 | 95 | 1017.7 |
| 20260902121817 | 25 | 78 | 3.2 | 4.8 | 0.00 | 1.96 | 0.00 | 95 | 1017.5 |
| 20260902121316 | 25 | 95 | 1.6 | 6.4 | 0.00 | 1.96 | 0.00 | 95 | 1017.4 |
| 20260902120811 | 25 | 109 | 1.6 | 6.4 | 0.00 | 1.96 | 0.00 | 95 | 1017.3 |
| 20260902120312 | 25 | 126 | 1.6 | 6.4 | 0.00 | 1.96 | 0.00 | 95 | 1017.3 |